Year,Month,Day,Hour,Minute,Value (Times are PST for temperature in C)
2012,09,12,00,00,10.40
2012,09,12,00,01,10.40
2012,09,12,00,02,10.30
2012,09,12,00,03,10.30
2012,09,12,00,04,10.30
2012,09,12,00,05,10.20
2012,09,12,00,06,10.20
2012,09,12,00,07,10.10
2012,09,12,00,08,10.10
2012,09,12,00,09,10.10
2012,09,12,00,10,10.10
2012,09,12,00,11,10.10
2012,09,12,00,12,10.10
2012,09,12,00,13,10.10
2012,09,12,00,14,10.10
2012,09,12,00,15,10.10
2012,09,12,00,16,10.10
2012,09,12,00,17,10.10
2012,09,12,00,18,10.00
2012,09,12,00,19,10.00
2012,09,12,00,20,10.00
2012,09,12,00,21,10.00
2012,09,12,00,22,10.00
2012,09,12,00,23,10.00
2012,09,12,00,24,10.00
2012,09,12,00,25,10.00
2012,09,12,00,26,10.00
2012,09,12,00,27,10.00
2012,09,12,00,28,9.90
2012,09,12,00,29,9.90
2012,09,12,00,30,9.90
2012,09,12,00,31,9.90
2012,09,12,00,32,9.90
2012,09,12,00,33,9.90
2012,09,12,00,34,9.80
2012,09,12,00,35,9.80
2012,09,12,00,36,9.80
2012,09,12,00,37,9.80
2012,09,12,00,38,9.80
2012,09,12,00,39,9.80
2012,09,12,00,40,9.80
2012,09,12,00,41,9.90
2012,09,12,00,42,9.90
2012,09,12,00,43,9.90
2012,09,12,00,44,9.90
2012,09,12,00,45,9.90
2012,09,12,00,46,9.90
2012,09,12,00,47,9.90
2012,09,12,00,48,9.90
2012,09,12,00,49,9.90
2012,09,12,00,50,9.80
2012,09,12,00,51,9.80
2012,09,12,00,52,9.80
2012,09,12,00,53,9.80
2012,09,12,00,54,9.80
2012,09,12,00,55,9.80
2012,09,12,00,56,9.80
2012,09,12,00,57,9.70
2012,09,12,00,58,9.70
2012,09,12,00,59,9.70
2012,09,12,01,00,9.70
2012,09,12,01,01,9.70
2012,09,12,01,02,9.70
2012,09,12,01,03,9.70
2012,09,12,01,04,9.70
2012,09,12,01,05,9.70
2012,09,12,01,06,9.70
2012,09,12,01,07,9.70
2012,09,12,01,08,9.70
2012,09,12,01,09,9.70
2012,09,12,01,10,9.70
2012,09,12,01,11,9.70
2012,09,12,01,12,9.60
2012,09,12,01,13,9.60
2012,09,12,01,14,9.60
2012,09,12,01,15,9.60
2012,09,12,01,16,9.60
2012,09,12,01,17,9.60
2012,09,12,01,18,9.60
2012,09,12,01,19,9.60
2012,09,12,01,20,9.60
2012,09,12,01,21,9.50
2012,09,12,01,22,9.50
2012,09,12,01,23,9.50
2012,09,12,01,24,9.50
2012,09,12,01,25,9.40
2012,09,12,01,26,9.40
2012,09,12,01,27,9.40
2012,09,12,01,28,9.30
2012,09,12,01,29,9.30
2012,09,12,01,30,9.20
2012,09,12,01,31,9.20
2012,09,12,01,32,9.20
2012,09,12,01,33,9.20
2012,09,12,01,34,9.10
2012,09,12,01,35,9.10
2012,09,12,01,36,9.00
2012,09,12,01,37,9.00
2012,09,12,01,38,9.00
2012,09,12,01,39,8.90
2012,09,12,01,40,8.90
2012,09,12,01,41,8.80
2012,09,12,01,42,8.80
2012,09,12,01,43,8.80
2012,09,12,01,44,8.70
2012,09,12,01,45,8.70
2012,09,12,01,46,8.70
2012,09,12,01,47,8.70
2012,09,12,01,48,8.60
2012,09,12,01,49,8.60
2012,09,12,01,50,8.60
2012,09,12,01,51,8.50
2012,09,12,01,52,8.50
2012,09,12,01,53,8.40
2012,09,12,01,54,8.40
2012,09,12,01,55,8.40
2012,09,12,01,56,8.40
2012,09,12,01,57,8.40
2012,09,12,01,58,8.40
2012,09,12,01,59,8.30
2012,09,12,02,00,8.30
2012,09,12,02,01,8.30
2012,09,12,02,02,8.30
2012,09,12,02,03,8.30
2012,09,12,02,04,8.20
2012,09,12,02,05,8.20
2012,09,12,02,06,8.20
2012,09,12,02,07,8.20
2012,09,12,02,08,8.20
2012,09,12,02,09,8.20
2012,09,12,02,10,8.20
2012,09,12,02,11,8.20
2012,09,12,02,12,8.10
2012,09,12,02,13,8.10
2012,09,12,02,14,8.10
2012,09,12,02,15,8.10
2012,09,12,02,16,8.00
2012,09,12,02,17,8.00
2012,09,12,02,18,8.00
2012,09,12,02,19,8.00
2012,09,12,02,20,8.00
2012,09,12,02,21,7.90
2012,09,12,02,22,7.90
2012,09,12,02,23,7.90
2012,09,12,02,24,7.90
2012,09,12,02,25,7.90
2012,09,12,02,26,7.90
2012,09,12,02,27,7.90
2012,09,12,02,28,7.90
2012,09,12,02,29,7.90
2012,09,12,02,30,7.90
2012,09,12,02,31,7.90
2012,09,12,02,32,7.90
2012,09,12,02,33,7.90
2012,09,12,02,34,7.90
2012,09,12,02,35,8.00
2012,09,12,02,36,8.00
2012,09,12,02,37,8.00
2012,09,12,02,38,8.00
2012,09,12,02,39,8.00
2012,09,12,02,40,8.00
2012,09,12,02,41,8.00
2012,09,12,02,42,8.00
2012,09,12,02,43,8.10
2012,09,12,02,44,8.10
2012,09,12,02,45,8.10
2012,09,12,02,46,8.10
2012,09,12,02,47,8.10
2012,09,12,02,48,8.10
2012,09,12,02,49,8.10
2012,09,12,02,50,8.10
2012,09,12,02,51,8.10
2012,09,12,02,52,8.10
2012,09,12,02,53,8.10
2012,09,12,02,54,8.10
2012,09,12,02,55,8.10
2012,09,12,02,56,8.10
2012,09,12,02,57,8.10
2012,09,12,02,58,8.10
2012,09,12,02,59,8.10
2012,09,12,03,00,8.10
2012,09,12,03,01,8.20
2012,09,12,03,02,8.20
2012,09,12,03,03,8.20
2012,09,12,03,04,8.10
2012,09,12,03,05,8.10
2012,09,12,03,06,8.10
2012,09,12,03,07,8.10
2012,09,12,03,08,8.10
2012,09,12,03,09,8.10
2012,09,12,03,10,8.00
2012,09,12,03,11,8.00
2012,09,12,03,12,8.00
2012,09,12,03,13,8.00
2012,09,12,03,14,7.90
2012,09,12,03,15,7.90
2012,09,12,03,16,7.90
2012,09,12,03,17,7.90
2012,09,12,03,18,7.80
2012,09,12,03,19,7.80
2012,09,12,03,20,7.80
2012,09,12,03,21,7.80
2012,09,12,03,22,7.70
2012,09,12,03,23,7.70
2012,09,12,03,24,7.70
2012,09,12,03,25,7.70
2012,09,12,03,26,7.70
2012,09,12,03,27,7.70
2012,09,12,03,28,7.70
2012,09,12,03,29,7.70
2012,09,12,03,30,7.70
2012,09,12,03,31,7.70
2012,09,12,03,32,7.70
2012,09,12,03,33,7.70
2012,09,12,03,34,7.70
2012,09,12,03,35,7.70
2012,09,12,03,36,7.80
2012,09,12,03,37,7.80
2012,09,12,03,38,7.80
2012,09,12,03,39,7.80
2012,09,12,03,40,7.90
2012,09,12,03,41,7.90
2012,09,12,03,42,7.90
2012,09,12,03,43,7.90
2012,09,12,03,44,7.90
2012,09,12,03,45,7.90
2012,09,12,03,46,7.90
2012,09,12,03,47,7.80
2012,09,12,03,48,7.80
2012,09,12,03,49,7.80
2012,09,12,03,50,7.80
2012,09,12,03,51,7.80
2012,09,12,03,52,7.80
2012,09,12,03,53,7.80
2012,09,12,03,54,7.80
2012,09,12,03,55,7.80
2012,09,12,03,56,7.80
2012,09,12,03,57,7.70
2012,09,12,03,58,7.70
2012,09,12,03,59,7.70
2012,09,12,04,00,7.70
2012,09,12,04,01,7.70
2012,09,12,04,02,7.70
2012,09,12,04,03,7.60
2012,09,12,04,04,7.60
2012,09,12,04,05,7.60
2012,09,12,04,06,7.70
2012,09,12,04,07,7.60
2012,09,12,04,08,7.60
2012,09,12,04,09,7.60
2012,09,12,04,10,7.60
2012,09,12,04,11,7.60
2012,09,12,04,12,7.60
2012,09,12,04,13,7.60
2012,09,12,04,14,7.60
2012,09,12,04,15,7.60
2012,09,12,04,16,7.60
2012,09,12,04,17,7.50
2012,09,12,04,18,7.50
2012,09,12,04,19,7.50
2012,09,12,04,20,7.50
2012,09,12,04,21,7.50
2012,09,12,04,22,7.50
2012,09,12,04,23,7.50
2012,09,12,04,24,7.50
2012,09,12,04,25,7.50
2012,09,12,04,26,7.50
2012,09,12,04,27,7.50
2012,09,12,04,28,7.50
2012,09,12,04,29,7.50
2012,09,12,04,30,7.50
2012,09,12,04,31,7.40
2012,09,12,04,32,7.40
2012,09,12,04,33,7.40
2012,09,12,04,34,7.40
2012,09,12,04,35,7.40
2012,09,12,04,36,7.50
2012,09,12,04,37,7.50
2012,09,12,04,38,7.50
2012,09,12,04,39,7.60
2012,09,12,04,40,7.60
2012,09,12,04,41,7.60
2012,09,12,04,42,7.60
2012,09,12,04,43,7.60
2012,09,12,04,44,7.60
2012,09,12,04,45,7.70
2012,09,12,04,46,7.70
2012,09,12,04,47,7.70
2012,09,12,04,48,7.70
2012,09,12,04,49,7.80
2012,09,12,04,50,7.80
2012,09,12,04,51,7.90
2012,09,12,04,52,8.00
2012,09,12,04,53,8.10
2012,09,12,04,54,8.20
2012,09,12,04,55,8.30
2012,09,12,04,56,8.40
2012,09,12,04,57,8.60
2012,09,12,04,58,8.70
2012,09,12,04,59,8.90
2012,09,12,05,00,9.00
2012,09,12,05,01,9.20
2012,09,12,05,02,9.30
2012,09,12,05,03,9.50
2012,09,12,05,04,9.60
2012,09,12,05,05,9.70
2012,09,12,05,06,9.80
2012,09,12,05,07,9.90
2012,09,12,05,08,10.10
2012,09,12,05,09,10.20
2012,09,12,05,10,10.30
2012,09,12,05,11,10.40
2012,09,12,05,12,10.50
2012,09,12,05,13,10.60
2012,09,12,05,14,10.60
2012,09,12,05,15,10.70
2012,09,12,05,16,10.70
2012,09,12,05,17,10.80
2012,09,12,05,18,10.80
2012,09,12,05,19,10.80
2012,09,12,05,20,10.80
2012,09,12,05,21,10.80
2012,09,12,05,22,10.90
2012,09,12,05,23,10.90
2012,09,12,05,24,10.90
2012,09,12,05,25,10.90
2012,09,12,05,26,10.90
2012,09,12,05,27,11.00
2012,09,12,05,28,11.00
2012,09,12,05,29,11.00
2012,09,12,05,30,11.00
2012,09,12,05,31,11.00
2012,09,12,05,32,11.00
2012,09,12,05,33,11.10
2012,09,12,05,34,11.10
2012,09,12,05,35,11.10
2012,09,12,05,36,11.10
2012,09,12,05,37,11.10
2012,09,12,05,38,11.10
2012,09,12,05,39,11.10
2012,09,12,05,40,11.10
2012,09,12,05,41,11.10
2012,09,12,05,42,11.00
2012,09,12,05,43,11.00
2012,09,12,05,44,11.00
2012,09,12,05,45,11.00
2012,09,12,05,46,11.00
2012,09,12,05,47,11.00
2012,09,12,05,48,11.00
2012,09,12,05,49,11.00
2012,09,12,05,50,11.00
2012,09,12,05,51,11.00
2012,09,12,05,52,11.00
2012,09,12,05,53,11.00
2012,09,12,05,54,10.90
2012,09,12,05,55,10.90
2012,09,12,05,56,10.90
2012,09,12,05,57,10.90
2012,09,12,05,58,10.90
2012,09,12,05,59,10.90
2012,09,12,06,00,10.90
2012,09,12,06,01,10.90
2012,09,12,06,02,10.90
2012,09,12,06,03,10.90
2012,09,12,06,04,10.90
2012,09,12,06,05,10.90
2012,09,12,06,06,10.90
2012,09,12,06,07,10.90
2012,09,12,06,08,10.90
2012,09,12,06,09,10.80
2012,09,12,06,10,10.80
2012,09,12,06,11,10.80
2012,09,12,06,12,10.80
2012,09,12,06,13,10.80
2012,09,12,06,14,10.80
2012,09,12,06,15,10.80
2012,09,12,06,16,10.70
2012,09,12,06,17,10.70
2012,09,12,06,18,10.70
2012,09,12,06,19,10.70
2012,09,12,06,20,10.70
2012,09,12,06,21,10.70
2012,09,12,06,22,10.70
2012,09,12,06,23,10.60
2012,09,12,06,24,10.60
2012,09,12,06,25,10.60
2012,09,12,06,26,10.60
2012,09,12,06,27,10.60
2012,09,12,06,28,10.50
2012,09,12,06,29,10.50
2012,09,12,06,30,10.40
2012,09,12,06,31,10.40
2012,09,12,06,32,10.30
2012,09,12,06,33,10.30
2012,09,12,06,34,10.30
2012,09,12,06,35,10.20
2012,09,12,06,36,10.20
2012,09,12,06,37,10.20
2012,09,12,06,38,10.10
2012,09,12,06,39,10.10
2012,09,12,06,40,10.10
2012,09,12,06,41,10.00
2012,09,12,06,42,10.00
2012,09,12,06,43,9.90
2012,09,12,06,44,9.90
2012,09,12,06,45,9.90
2012,09,12,06,46,9.90
2012,09,12,06,47,9.90
2012,09,12,06,48,9.80
2012,09,12,06,49,9.80
2012,09,12,06,50,9.80
2012,09,12,06,51,9.80
2012,09,12,06,52,9.80
2012,09,12,06,53,9.80
2012,09,12,06,54,9.80
2012,09,12,06,55,9.80
2012,09,12,06,56,9.80
2012,09,12,06,57,9.80
2012,09,12,06,58,9.80
2012,09,12,06,59,9.90
2012,09,12,07,00,9.90
2012,09,12,07,01,9.90
2012,09,12,07,02,9.90
2012,09,12,07,03,9.90
2012,09,12,07,04,10.00
2012,09,12,07,05,10.00
2012,09,12,07,06,10.00
2012,09,12,07,07,10.00
2012,09,12,07,08,10.00
2012,09,12,07,09,10.00
2012,09,12,07,10,10.10
2012,09,12,07,11,10.10
2012,09,12,07,12,10.10
2012,09,12,07,13,10.10
2012,09,12,07,14,10.10
2012,09,12,07,15,10.10
2012,09,12,07,16,10.10
2012,09,12,07,17,10.20
2012,09,12,07,18,10.20
2012,09,12,07,19,10.20
2012,09,12,07,20,10.20
2012,09,12,07,21,10.20
2012,09,12,07,22,10.20
2012,09,12,07,23,10.30
2012,09,12,07,24,10.30
2012,09,12,07,25,10.30
2012,09,12,07,26,10.30
2012,09,12,07,27,10.40
2012,09,12,07,28,10.40
2012,09,12,07,29,10.40
2012,09,12,07,30,10.50
2012,09,12,07,31,10.50
2012,09,12,07,32,10.60
2012,09,12,07,33,10.60
2012,09,12,07,34,10.70
2012,09,12,07,35,10.70
2012,09,12,07,36,10.80
2012,09,12,07,37,10.80
2012,09,12,07,38,10.90
2012,09,12,07,39,10.90
2012,09,12,07,40,10.90
2012,09,12,07,41,11.00
2012,09,12,07,42,11.00
2012,09,12,07,43,11.10
2012,09,12,07,44,11.10
2012,09,12,07,45,11.10
2012,09,12,07,46,11.20
2012,09,12,07,47,11.20
2012,09,12,07,48,11.30
2012,09,12,07,49,11.30
2012,09,12,07,50,11.30
2012,09,12,07,51,11.40
2012,09,12,07,52,11.40
2012,09,12,07,53,11.40
2012,09,12,07,54,11.50
2012,09,12,07,55,11.50
2012,09,12,07,56,11.60
2012,09,12,07,57,11.60
2012,09,12,07,58,11.60
2012,09,12,07,59,11.70
2012,09,12,08,00,11.70
2012,09,12,08,01,11.70
2012,09,12,08,02,11.80
2012,09,12,08,03,11.80
2012,09,12,08,04,11.90
2012,09,12,08,05,11.90
2012,09,12,08,06,12.00
2012,09,12,08,07,12.00
2012,09,12,08,08,12.10
2012,09,12,08,09,12.10
2012,09,12,08,10,12.10
2012,09,12,08,11,12.10
2012,09,12,08,12,12.20
2012,09,12,08,13,12.20
2012,09,12,08,14,12.20
2012,09,12,08,15,12.30
2012,09,12,08,16,12.30
2012,09,12,08,17,12.30
2012,09,12,08,18,12.40
2012,09,12,08,19,12.40
2012,09,12,08,20,12.40
2012,09,12,08,21,12.40
2012,09,12,08,22,12.50
2012,09,12,08,23,12.50
2012,09,12,08,24,12.60
2012,09,12,08,25,12.60
2012,09,12,08,26,12.70
2012,09,12,08,27,12.70
2012,09,12,08,28,12.80
2012,09,12,08,29,12.80
2012,09,12,08,30,12.80
2012,09,12,08,31,12.80
2012,09,12,08,32,12.80
2012,09,12,08,33,12.80
2012,09,12,08,34,12.80
2012,09,12,08,35,12.80
2012,09,12,08,36,12.80
2012,09,12,08,37,12.80
2012,09,12,08,38,12.80
2012,09,12,08,39,12.90
2012,09,12,08,40,12.90
2012,09,12,08,41,12.90
2012,09,12,08,42,12.90
2012,09,12,08,43,13.00
2012,09,12,08,44,13.00
2012,09,12,08,45,13.10
2012,09,12,08,46,13.10
2012,09,12,08,47,13.10
2012,09,12,08,48,13.10
2012,09,12,08,49,13.10
2012,09,12,08,50,13.10
2012,09,12,08,51,13.10
2012,09,12,08,52,13.10
2012,09,12,08,53,13.10
2012,09,12,08,54,13.10
2012,09,12,08,55,13.20
2012,09,12,08,56,13.20
2012,09,12,08,57,13.20
2012,09,12,08,58,13.20
2012,09,12,08,59,13.20
2012,09,12,09,00,13.20
2012,09,12,09,01,13.30
2012,09,12,09,02,13.30
2012,09,12,09,03,13.30
2012,09,12,09,04,13.30
2012,09,12,09,05,13.30
2012,09,12,09,06,13.30
2012,09,12,09,07,13.30
2012,09,12,09,08,13.30
2012,09,12,09,09,13.30
2012,09,12,09,10,13.40
2012,09,12,09,11,13.40
2012,09,12,09,12,13.40
2012,09,12,09,13,13.40
2012,09,12,09,14,13.50
2012,09,12,09,15,13.50
2012,09,12,09,16,13.50
2012,09,12,09,17,13.60
2012,09,12,09,18,13.60
2012,09,12,09,19,13.60
2012,09,12,09,20,13.60
2012,09,12,09,21,13.60
2012,09,12,09,22,13.60
2012,09,12,09,23,13.60
2012,09,12,09,24,13.60
2012,09,12,09,25,13.50
2012,09,12,09,26,13.50
2012,09,12,09,27,13.50
2012,09,12,09,28,13.60
2012,09,12,09,29,13.60
2012,09,12,09,30,13.60
2012,09,12,09,31,13.60
2012,09,12,09,32,13.60
2012,09,12,09,33,13.60
2012,09,12,09,34,13.60
2012,09,12,09,35,13.60
2012,09,12,09,36,13.60
2012,09,12,09,37,13.60
2012,09,12,09,38,13.60
2012,09,12,09,39,13.70
2012,09,12,09,40,13.70
2012,09,12,09,41,13.80
2012,09,12,09,42,13.80
2012,09,12,09,43,13.80
2012,09,12,09,44,13.90
2012,09,12,09,45,13.90
2012,09,12,09,46,13.90
2012,09,12,09,47,14.00
2012,09,12,09,48,14.00
2012,09,12,09,49,14.00
2012,09,12,09,50,14.00
2012,09,12,09,51,14.00
2012,09,12,09,52,14.00
2012,09,12,09,53,14.00
2012,09,12,09,54,14.00
2012,09,12,09,55,14.10
2012,09,12,09,56,14.10
2012,09,12,09,57,14.10
2012,09,12,09,58,14.20
2012,09,12,09,59,14.20
2012,09,12,10,00,14.20
2012,09,12,10,01,14.20
2012,09,12,10,02,14.20
2012,09,12,10,03,14.30
2012,09,12,10,04,14.30
2012,09,12,10,05,14.30
2012,09,12,10,06,14.30
2012,09,12,10,07,14.30
2012,09,12,10,08,14.30
2012,09,12,10,09,14.40
2012,09,12,10,10,14.40
2012,09,12,10,11,14.40
2012,09,12,10,12,14.40
2012,09,12,10,13,14.40
2012,09,12,10,14,14.40
2012,09,12,10,15,14.40
2012,09,12,10,16,14.40
2012,09,12,10,17,14.40
2012,09,12,10,18,14.50
2012,09,12,10,19,14.40
2012,09,12,10,20,14.40
2012,09,12,10,21,14.40
2012,09,12,10,22,14.30
2012,09,12,10,23,14.40
2012,09,12,10,24,14.40
2012,09,12,10,25,14.40
2012,09,12,10,26,14.40
2012,09,12,10,27,14.50
2012,09,12,10,28,14.50
2012,09,12,10,29,14.60
2012,09,12,10,30,14.60
2012,09,12,10,31,14.70
2012,09,12,10,32,14.70
2012,09,12,10,33,14.80
2012,09,12,10,34,14.80
2012,09,12,10,35,14.80
2012,09,12,10,36,14.80
2012,09,12,10,37,14.80
2012,09,12,10,38,14.80
2012,09,12,10,39,14.90
2012,09,12,10,40,15.00
2012,09,12,10,41,15.00
2012,09,12,10,42,15.10
2012,09,12,10,43,15.20
2012,09,12,10,44,15.20
2012,09,12,10,45,15.20
2012,09,12,10,46,15.30
2012,09,12,10,47,15.30
2012,09,12,10,48,15.30
2012,09,12,10,49,15.30
2012,09,12,10,50,15.40
2012,09,12,10,51,15.40
2012,09,12,10,52,15.40
2012,09,12,10,53,15.40
2012,09,12,10,54,15.40
2012,09,12,10,55,15.40
2012,09,12,10,56,15.40
2012,09,12,10,57,15.30
2012,09,12,10,58,15.30
2012,09,12,10,59,15.30
2012,09,12,11,00,15.30
2012,09,12,11,01,15.30
2012,09,12,11,02,15.40
2012,09,12,11,03,15.40
2012,09,12,11,04,15.40
2012,09,12,11,05,15.40
2012,09,12,11,06,15.40
2012,09,12,11,07,15.40
2012,09,12,11,08,15.30
2012,09,12,11,09,15.40
2012,09,12,11,10,15.40
2012,09,12,11,11,15.40
2012,09,12,11,12,15.40
2012,09,12,11,13,15.50
2012,09,12,11,14,15.60
2012,09,12,11,15,15.60
2012,09,12,11,16,15.70
2012,09,12,11,17,15.70
2012,09,12,11,18,15.70
2012,09,12,11,19,15.80
2012,09,12,11,20,15.80
2012,09,12,11,21,15.80
2012,09,12,11,22,15.70
2012,09,12,11,23,15.80
2012,09,12,11,24,15.80
2012,09,12,11,25,15.90
2012,09,12,11,26,15.90
2012,09,12,11,27,15.90
2012,09,12,11,28,15.80
2012,09,12,11,29,15.80
2012,09,12,11,30,15.80
2012,09,12,11,31,15.80
2012,09,12,11,32,15.80
2012,09,12,11,33,15.80
2012,09,12,11,34,15.80
2012,09,12,11,35,15.70
2012,09,12,11,36,15.70
2012,09,12,11,37,15.80
2012,09,12,11,38,15.80
2012,09,12,11,39,15.80
2012,09,12,11,40,15.80
2012,09,12,11,41,15.80
2012,09,12,11,42,15.90
2012,09,12,11,43,15.90
2012,09,12,11,44,15.90
2012,09,12,11,45,15.90
2012,09,12,11,46,15.90
2012,09,12,11,47,15.90
2012,09,12,11,48,15.90
2012,09,12,11,49,16.00
2012,09,12,11,50,15.90
2012,09,12,11,51,15.90
2012,09,12,11,52,15.90
2012,09,12,11,53,15.90
2012,09,12,11,54,16.00
2012,09,12,11,55,16.00
2012,09,12,11,56,16.10
2012,09,12,11,57,16.10
2012,09,12,11,58,16.00
2012,09,12,11,59,16.00
2012,09,12,12,00,16.00
2012,09,12,12,01,16.00
2012,09,12,12,02,16.00
2012,09,12,12,03,16.00
2012,09,12,12,04,16.00
2012,09,12,12,05,16.00
2012,09,12,12,06,16.00
2012,09,12,12,07,16.00
2012,09,12,12,08,16.10
2012,09,12,12,09,16.10
2012,09,12,12,10,16.10
2012,09,12,12,11,16.10
2012,09,12,12,12,16.20
2012,09,12,12,13,16.20
2012,09,12,12,14,16.20
2012,09,12,12,15,16.20
2012,09,12,12,16,16.20
2012,09,12,12,17,16.20
2012,09,12,12,18,16.30
2012,09,12,12,19,16.30
2012,09,12,12,20,16.30
2012,09,12,12,21,16.40
2012,09,12,12,22,16.40
2012,09,12,12,23,16.40
2012,09,12,12,24,16.40
2012,09,12,12,25,16.40
2012,09,12,12,26,16.40
2012,09,12,12,27,16.40
2012,09,12,12,28,16.40
2012,09,12,12,29,16.40
2012,09,12,12,30,16.50
2012,09,12,12,31,16.50
2012,09,12,12,32,16.50
2012,09,12,12,33,16.50
2012,09,12,12,34,16.50
2012,09,12,12,35,16.60
2012,09,12,12,36,16.60
2012,09,12,12,37,16.60
2012,09,12,12,38,16.70
2012,09,12,12,39,16.80
2012,09,12,12,40,16.80
2012,09,12,12,41,16.80
2012,09,12,12,42,16.80
2012,09,12,12,43,16.80
2012,09,12,12,44,16.90
2012,09,12,12,45,16.90
2012,09,12,12,46,17.00
2012,09,12,12,47,17.00
2012,09,12,12,48,17.10
2012,09,12,12,49,17.10
2012,09,12,12,50,17.10
2012,09,12,12,51,17.10
2012,09,12,12,52,17.20
2012,09,12,12,53,17.20
2012,09,12,12,54,17.20
2012,09,12,12,55,17.30
2012,09,12,12,56,17.30
2012,09,12,12,57,17.40
2012,09,12,12,58,17.40
2012,09,12,12,59,17.40
2012,09,12,13,00,17.40
2012,09,12,13,01,17.40
2012,09,12,13,02,17.50
2012,09,12,13,03,17.50
2012,09,12,13,04,17.60
2012,09,12,13,05,17.60
2012,09,12,13,06,17.70
2012,09,12,13,07,17.70
2012,09,12,13,08,17.80
2012,09,12,13,09,17.80
2012,09,12,13,10,17.80
2012,09,12,13,11,17.80
2012,09,12,13,12,17.70
2012,09,12,13,13,17.60
2012,09,12,13,14,17.60
2012,09,12,13,15,17.60
2012,09,12,13,16,17.60
2012,09,12,13,17,17.60
2012,09,12,13,18,17.60
2012,09,12,13,19,17.70
2012,09,12,13,20,17.60
2012,09,12,13,21,17.60
2012,09,12,13,22,17.60
2012,09,12,13,23,17.50
2012,09,12,13,24,17.40
2012,09,12,13,25,17.40
2012,09,12,13,26,17.40
2012,09,12,13,27,17.40
2012,09,12,13,28,17.30
2012,09,12,13,29,17.30
2012,09,12,13,30,17.40
2012,09,12,13,31,17.40
2012,09,12,13,32,17.40
2012,09,12,13,33,17.40
2012,09,12,13,34,17.40
2012,09,12,13,35,17.30
2012,09,12,13,36,17.30
2012,09,12,13,37,17.30
2012,09,12,13,38,17.40
2012,09,12,13,39,17.40
2012,09,12,13,40,17.50
2012,09,12,13,41,17.50
2012,09,12,13,42,17.60
2012,09,12,13,43,17.60
2012,09,12,13,44,17.50
2012,09,12,13,45,17.50
2012,09,12,13,46,17.50
2012,09,12,13,47,17.50
2012,09,12,13,48,17.40
2012,09,12,13,49,17.40
2012,09,12,13,50,17.40
2012,09,12,13,51,17.40
2012,09,12,13,52,17.40
2012,09,12,13,53,17.40
2012,09,12,13,54,17.40
2012,09,12,13,55,17.40
2012,09,12,13,56,17.50
2012,09,12,13,57,17.40
2012,09,12,13,58,17.40
2012,09,12,13,59,17.50
2012,09,12,14,00,17.50
2012,09,12,14,01,17.50
2012,09,12,14,02,17.60
2012,09,12,14,03,17.60
2012,09,12,14,04,17.70
2012,09,12,14,05,17.70
2012,09,12,14,06,17.70
2012,09,12,14,07,17.70
2012,09,12,14,08,17.70
2012,09,12,14,09,17.70
2012,09,12,14,10,17.80
2012,09,12,14,11,17.80
2012,09,12,14,12,17.80
2012,09,12,14,13,17.80
2012,09,12,14,14,17.80
2012,09,12,14,15,17.80
2012,09,12,14,16,17.80
2012,09,12,14,17,17.80
2012,09,12,14,18,17.80
2012,09,12,14,19,17.80
2012,09,12,14,20,17.80
2012,09,12,14,21,17.80
2012,09,12,14,22,17.80
2012,09,12,14,23,17.80
2012,09,12,14,24,17.80
2012,09,12,14,25,17.80
2012,09,12,14,26,17.80
2012,09,12,14,27,17.80
2012,09,12,14,28,17.80
2012,09,12,14,29,17.90
2012,09,12,14,30,17.90
2012,09,12,14,31,18.00
2012,09,12,14,32,18.10
2012,09,12,14,33,18.10
2012,09,12,14,34,18.20
2012,09,12,14,35,18.20
2012,09,12,14,36,18.30
2012,09,12,14,37,18.30
2012,09,12,14,38,18.30
2012,09,12,14,39,18.30
2012,09,12,14,40,18.30
2012,09,12,14,41,18.30
2012,09,12,14,42,18.30
2012,09,12,14,43,18.30
2012,09,12,14,44,18.30
2012,09,12,14,45,18.30
2012,09,12,14,46,18.30
2012,09,12,14,47,18.30
2012,09,12,14,48,18.40
2012,09,12,14,49,18.40
2012,09,12,14,50,18.50
2012,09,12,14,51,18.60
2012,09,12,14,52,18.60
2012,09,12,14,53,18.60
2012,09,12,14,54,18.60
2012,09,12,14,55,18.60
2012,09,12,14,56,18.60
2012,09,12,14,57,18.50
2012,09,12,14,58,18.50
2012,09,12,14,59,18.50
2012,09,12,15,00,18.40
2012,09,12,15,01,18.40
2012,09,12,15,02,18.50
2012,09,12,15,03,18.50
2012,09,12,15,04,18.60
2012,09,12,15,05,18.70
2012,09,12,15,06,18.80
2012,09,12,15,07,18.80
2012,09,12,15,08,18.90
2012,09,12,15,09,18.90
2012,09,12,15,10,18.80
2012,09,12,15,11,18.80
2012,09,12,15,12,18.70
2012,09,12,15,13,18.70
2012,09,12,15,14,18.70
2012,09,12,15,15,18.70
2012,09,12,15,16,18.70
2012,09,12,15,17,18.70
2012,09,12,15,18,18.70
2012,09,12,15,19,18.70
2012,09,12,15,20,18.70
2012,09,12,15,21,18.60
2012,09,12,15,22,18.60
2012,09,12,15,23,18.60
2012,09,12,15,24,18.60
2012,09,12,15,25,18.60
2012,09,12,15,26,18.60
2012,09,12,15,27,18.60
2012,09,12,15,28,18.50
2012,09,12,15,29,18.50
2012,09,12,15,30,18.40
2012,09,12,15,31,18.40
2012,09,12,15,32,18.40
2012,09,12,15,33,18.30
2012,09,12,15,34,18.30
2012,09,12,15,35,18.30
2012,09,12,15,36,18.30
2012,09,12,15,37,18.40
2012,09,12,15,38,18.40
2012,09,12,15,39,18.30
2012,09,12,15,40,18.30
2012,09,12,15,41,18.30
2012,09,12,15,42,18.30
2012,09,12,15,43,18.30
2012,09,12,15,44,18.30
2012,09,12,15,45,18.30
2012,09,12,15,46,18.30
2012,09,12,15,47,18.30
2012,09,12,15,48,18.30
2012,09,12,15,49,18.30
2012,09,12,15,50,18.30
2012,09,12,15,51,18.20
2012,09,12,15,52,18.30
2012,09,12,15,53,18.30
2012,09,12,15,54,18.30
2012,09,12,15,55,18.40
2012,09,12,15,56,18.50
2012,09,12,15,57,18.50
2012,09,12,15,58,18.60
2012,09,12,15,59,18.60
2012,09,12,16,00,18.70
2012,09,12,16,01,18.70
2012,09,12,16,02,18.60
2012,09,12,16,03,18.60
2012,09,12,16,04,18.60
2012,09,12,16,05,18.60
2012,09,12,16,06,18.60
2012,09,12,16,07,18.60
2012,09,12,16,08,18.60
2012,09,12,16,09,18.70
2012,09,12,16,10,18.70
2012,09,12,16,11,18.70
2012,09,12,16,12,18.70
2012,09,12,16,13,18.70
2012,09,12,16,14,18.70
2012,09,12,16,15,18.70
2012,09,12,16,16,18.70
2012,09,12,16,17,18.70
2012,09,12,16,18,18.70
2012,09,12,16,19,18.70
2012,09,12,16,20,18.70
2012,09,12,16,21,18.70
2012,09,12,16,22,18.70
2012,09,12,16,23,18.70
2012,09,12,16,24,18.70
2012,09,12,16,25,18.70
2012,09,12,16,26,18.80
2012,09,12,16,27,18.90
2012,09,12,16,28,19.00
2012,09,12,16,29,19.10
2012,09,12,16,30,19.10
2012,09,12,16,31,19.20
2012,09,12,16,32,19.20
2012,09,12,16,33,19.20
2012,09,12,16,34,19.20
2012,09,12,16,35,19.20
2012,09,12,16,36,19.20
2012,09,12,16,37,19.20
2012,09,12,16,38,19.20
2012,09,12,16,39,19.20
2012,09,12,16,40,19.20
2012,09,12,16,41,19.20
2012,09,12,16,42,19.20
2012,09,12,16,43,19.20
2012,09,12,16,44,19.20
2012,09,12,16,45,19.20
2012,09,12,16,46,19.20
2012,09,12,16,47,19.20
2012,09,12,16,48,19.10
2012,09,12,16,49,19.10
2012,09,12,16,50,19.10
2012,09,12,16,51,19.10
2012,09,12,16,52,19.10
2012,09,12,16,53,19.20
2012,09,12,16,54,19.20
2012,09,12,16,55,19.20
2012,09,12,16,56,19.20
2012,09,12,16,57,19.20
2012,09,12,16,58,19.20
2012,09,12,16,59,19.20
2012,09,12,17,00,19.20
2012,09,12,17,01,19.20
2012,09,12,17,02,19.20
2012,09,12,17,03,19.20
2012,09,12,17,04,19.20
2012,09,12,17,05,19.20
2012,09,12,17,06,19.20
2012,09,12,17,07,19.10
2012,09,12,17,08,19.10
2012,09,12,17,09,19.10
2012,09,12,17,10,19.10
2012,09,12,17,11,19.10
2012,09,12,17,12,19.10
2012,09,12,17,13,19.10
2012,09,12,17,14,19.20
2012,09,12,17,15,19.20
2012,09,12,17,16,19.20
2012,09,12,17,17,19.20
2012,09,12,17,18,19.20
2012,09,12,17,19,19.30
2012,09,12,17,20,19.30
2012,09,12,17,21,19.30
2012,09,12,17,22,19.30
2012,09,12,17,23,19.40
2012,09,12,17,24,19.40
2012,09,12,17,25,19.40
2012,09,12,17,26,19.40
2012,09,12,17,27,19.40
2012,09,12,17,28,19.40
2012,09,12,17,29,19.40
2012,09,12,17,30,19.40
2012,09,12,17,31,19.40
2012,09,12,17,32,19.40